#timestamp,LO_Frequency,Hit,StdDev 
1521813615.4,286047000.8,N
1521813635.3,286046998.7,N
1521813655.1,286047000.8,N
1521813675.8,286047004.0,Y
1521813695.7,286047002.4,P
1521813715.5,286047000.1,N
1521813735.4,286047000.8,N
1521813755.2,286047001.2,N
1521813775.0,286046998.1,N
1521813775.9,286046998.1,N
1521813795.8,286046999.4,N
1521813815.6,286046998.1,N
1521813835.4,286046998.9,N
1521813855.3,286046998.4,N
1521813875.1,286046998.4,N
1521813895.9,286046998.7,N
1521813915.7,286046998.1,N
1521813935.5,286047002.5,N
1521813955.4,286047001.1,N
1521813975.2,286047001.2,N
1521813995.0,286047000.5,N
1521813995.9,286047000.5,N
1521814015.8,286047001.2,N
1521814035.6,286047001.1,N
1521814055.5,286047000.3,N
1521814075.3,286047001.0,N
1521814095.1,286047001.2,N
1521814115.9,286047000.2,N
1521814135.7,286047000.2,N
1521814155.6,286047000.2,N
1521814175.4,286047001.1,N
1521814195.2,286047000.0,N
1521814215.1,286047002.1,N
1521814216.0,286047002.1,N
1521814235.8,286047000.4,N
1521814255.6,286046996.9,N
1521814275.5,286046995.0,Y
1521814295.3,286046997.6,P
1521814315.2,286046995.7,P
1521814335.9,286046993.8,P
1521814355.7,286046993.8,N
1521814375.6,286046994.4,N
1521814395.4,286046993.6,N
1521814415.3,286046994.1,N
1521814435.1,286046994.7,N
1521814436.0,286046994.7,N
1521814455.8,286046991.7,Y
1521814475.7,286046994.9,P
1521814495.5,286046995.9,P
1521814515.4,286046993.4,P
1521814535.2,286046994.8,Y
1521814555.0,286047001.2,P
1521814555.9,286047001.2,N
1521814575.8,286047000.7,N
1521814595.6,286047000.6,N
1521814615.5,286046999.9,N
1521814635.3,286046998.1,N
1521814655.1,286047001.0,N
1521814675.9,286047000.2,N
1521814695.7,286046998.6,N
1521814715.5,286046998.4,N
1521814735.4,286046999.2,N
1521814755.2,286046998.9,N
1521814775.1,286046999.3,N
1521814776.0,286046999.3,N
1521814795.8,286046998.6,N
1521814815.6,286046998.6,N
1521814835.5,286047000.8,N
1521814855.3,286047002.4,N
1521814875.2,286047000.6,N
1521814895.9,286047002.3,N
1521814915.7,286047000.6,N
1521814935.6,286047002.6,N
1521814955.4,286047001.8,N
1521814975.2,286047000.4,N
1521814995.1,286046999.8,N
1521814996.0,286046999.8,N
1521815015.8,286047001.2,N
1521815035.7,286046998.5,N
1521815055.5,286047000.0,N
1521815075.3,286047000.4,N
1521815095.2,286047000.6,N
1521815115.0,286046998.5,N
1521815115.9,286046998.5,N
1521815135.7,286046997.2,N
1521815155.6,286046996.8,N
1521815175.4,286046998.5,N
1521815195.3,286046998.3,N
1521815215.1,286046998.5,N
1521815216.0,286046998.5,N
1521815235.8,286046998.5,N
1521815255.7,286046998.9,N
1521815275.5,286046996.8,N
1521815295.3,286046996.7,N
1521815315.2,286046996.9,N
1521815335.0,286046998.9,N
1521815335.9,286046998.9,N
1521815355.8,286046996.7,N
1521815375.6,286046998.9,N
1521815395.4,286046994.9,Y
1521815415.3,286046996.4,P
1521815435.1,286046996.2,N
1521815455.9,286046997.9,N
1521815475.7,286046995.1,Y
1521815495.5,286046998.6,P
1521815515.4,286046998.6,N
1521815535.2,286046998.8,N
1521815555.1,286046996.7,Y
1521815556.0,286046996.7,P
1521815575.8,286047000.9,N
1521815595.6,286047000.1,N
1521815615.5,286047001.8,N
1521815635.3,286047000.0,N
1521815655.2,286047002.0,N
1521815675.9,286047000.1,N
1521815695.7,286047002.5,N
1521815715.6,286047001.4,N
1521815735.4,286047001.8,N
1521815755.2,286047004.4,N
1521815775.1,286047002.6,N
1521815776.0,286047002.6,N
1521815795.8,286047000.2,N
1521815815.7,286047000.7,N
1521815835.5,286047001.1,N
1521815855.3,286047000.9,N
1521815875.2,286046998.8,N
1521815895.0,286046996.7,N
1521815895.9,286046996.7,N
1521815915.8,286046996.7,N
1521815935.6,286046997.3,N
1521815955.4,286046996.6,N
1521815975.3,286047011.9,Y
1521815995.1,286046999.0,P
1521816015.9,286046998.8,N
1521816035.7,286046998.5,N
1521816055.5,286046999.3,N
1521816075.4,286046995.4,Y
1521816095.2,286046997.9,P
1521816115.0,286046995.0,P
1521816116.0,286046995.0,N
1521816135.8,286046997.7,N
1521816155.6,286046997.2,N
1521816175.5,286046997.5,N
1521816195.3,286046995.8,N
1521816215.1,286046996.4,N
1521816235.9,286046993.3,Y
1521816255.7,286046997.0,P
1521816275.6,286046999.6,P
1521816295.4,286046998.8,N
1521816315.2,286046998.4,N
1521816335.1,286046999.7,N
1521816336.0,286046999.7,N
1521816355.8,286047000.3,N
1521816375.6,286047002.3,N
1521816395.5,286047002.8,N
1521816415.3,286047001.5,N
1521816435.2,286047001.6,N
1521816455.9,286047004.4,N
1521816475.7,286047001.9,N
1521816495.6,286047001.4,N
1521816515.4,286047002.2,N
1521816535.2,286047000.9,N
1521816555.1,286047001.9,N
1521816556.0,286047001.9,N
1521816575.8,286047002.8,N
1521816595.7,286047002.3,N
1521816615.5,286047003.7,N
1521816635.3,286047003.8,N
1521816655.2,286047001.3,N
1521816675.0,286047002.4,N
1521816675.9,286047002.4,N
1521816695.8,286047001.3,N
1521816715.6,286047002.6,N
1521816735.4,286047004.3,N
1521816755.3,286047001.7,N
1521816775.1,286047002.6,N
1521816795.8,286047002.2,N
1521816815.7,286047004.2,N
1521816835.5,286047001.4,N
1521816855.4,286047002.5,N
1521816875.2,286047001.5,N
1521816895.0,286047003.8,Y
1521816895.9,286047003.8,P
1521816915.8,286047002.1,N
1521816935.6,286047001.6,N
1521816955.4,286047001.5,N
1521816975.3,286047004.3,Y
1521816995.1,286047000.6,P
1521817015.9,286046999.8,N
1521817035.7,286047000.7,N
1521817055.5,286047002.3,N
1521817075.4,286047002.2,N
1521817095.2,286047001.8,N
1521817115.1,286047001.8,N
1521817116.0,286047001.8,N
1521817135.8,286047002.6,Y
1521817155.6,286047001.0,P
1521817175.5,286046998.6,P
1521817195.3,286046999.8,N
